EHI
0 0 0 0 0 0 0 0 0 0 0 0 0 0 0 0 0 0 0 0 0 0 0 0 0 0 0 0 0 0 0 0 0 0 0 0 0 0 0 0 0 0 0
0 0 0 0 0 0 0 0 0 0 0 0 0 0 0 0 0 0 0 0 0 0 0 0 0 0 0 0 0 0 0 0 0 0 0 0 0 0 0 0 0 0 0
0 0 0 0 0 0 0 0 0 0 0 0 0 0 0 0 0 0 0 0 0 0 0 0 0 0 0 0 0 0 0 0 0 0 0 0 0 0 0 0 0 0 0
0 0 0 0 0 0 0 0 0 0 0 0 0 0 0 0 0 0 0 0 0 0 0 0 0 0 0 0 0 0 0 0 0 0 0 0 0 0 0 0 0 0 0
0 0 0 0 0 0 0 0 0 0 0 0 0 0 0 0 0 0 0 0 0 0 0 0 0 0 0 0 0 0 0 0 0 0 0 0 0 0 0 0 0 0 0
0 0 0 0 0 0 0 0 0 0 0 0 0 0 0 0 0 0 0 0 0 0 0 0 0 0 0 0 0 0 0 0 0 0 0 0 0 0 0 0 0 0 0
0 0 0 0 0 0 0 0 0 0 0 0 0 0 0 0 0 0 0 0 0 0 0 0 0 0 0 0 0 0 0 0 0 0 0 0 0 0 0 0 0 0 0
0 0 0 0 0 0 0 0 0 0 0 0 0 0 0 0 0 0 0 0 0 0 0 0 0 0 0 0 0 0 0 0 0 0 0 0 0 0 0 0 0 0 0
0 0 0 0 0 0 0 0 0 0 0 0 0 0 0 0 0 0 0 0 0 0 0 0 0 0 0 0 0 0 0 0 0 0 0 0 0 0 0 0 0 0 0
0 0 0 0 0 0 0 0 0 0 0 0 0 0 0 0 0 0 0 0 0 0 0 0 0 0 0 0 0 0 0 0 0 0 0 0 0 0 0 0 0 0 0
0 0 0 0 0 0 0 0 0 0 0 0 0 0 0 0 0 0 0 0 0 0 0 0 0 0 0 0 0 0 0 0 0 0 0 0 0 0 0 0 0 0 0
0 0 0 0 0 0 0 0 0 0 0 0 0 0 0 0 0 0 0 0 0 0 0 0 0 0 0 0 0 0 0 0 0 0 0 0 0 0 0 0 0 0 0
0 0 0 0 0 0 0 0 0 0 0 0 0 0 0 0 0 0 0 0 0 0 0 0 0 0 0 0 0 0 0 0 0 0 0 0 0 0 0 0 0 0 0
0 0 0 0 0 0 0 0 0 0 0 0 0 0 0 0 0 0 0 0 0 0 0 0 0 0 0 0 0 0 0 0 0 0 0 0 0 0 0 0 0 0 0
0 0 0 0 0 0 0 0 0 0 0 0 0 0 0 0 0 0 0 0 0 0 0 0 0 0 0 0 0 0 0 0 0 0 0 0 0 0 0 0 0 0 0
0 0 0 0 0 0 0 0 0 0 0 0 0 0 0 0 0 0 0 0 0 0 0 0 0 0 0 0 0 0 0 0 0 0 0 0 0 0 0 0 0 0 0
0 0 0 0 0 0 0 0 0 0 0 0 0 0 0 0 0 0 0 0 0 0 0 0 0 0 0 0 0 0 0 0 0 0 0 0 0 0 0 0 0 0 0
0 0 0 0 0 0 0 0 0 0 0 0 0 0 0 0 0 0 0 0 0 0 0 0 0 0 0 0 0 0 0 0 0 0 0 0 0 0 0 0 0 0 0
0 0 0 0 0 0 0 0 0 0 0 0 0 0 0 0 0 0 0 0 0 0 0 0 0 0 0 0 0 0 0 0 0 0 0 0 0 0 0 0 0 0 0
0 0 0 0 0 0 0 0 0 0 0 0 0 0 0 0 0 0 0 0 0 0 0 0 0 0 0 0 0 0 0 0 0 0 0 0 0 0 0 0 0 0 0
0 0 0 0 0 0 0 0 0 0 0 0 0 0 0 0 0 0 0 0 0 0 0 0 0 0 0 0 0 0 0 0 0 0 0 0 0 0 0 0 0 0 0
0 0 0 0 0 0 0 0 0 0 0 0 0 0 0 0 0 0 0 0 0 0 0 0 0 0 0 0 0 0 0 0 0 0 0 0 0 0 0 0 0 0 0
0 0 0 0 0 0 0 0 0 0 0 0 0 0 0 0 0 0 0 0 0 0 0 0 0 0 0 0 0 0 0 0 0 0 0 0 0 0 0 0 0 0 0
0 0 0 0 0 0 0 0 0 0 0 0 0 0 0 0 0 0 0 0 0 0 0 0 0 0 0 0 0 0 0 0 0 0 0 0 0 0 0 0 0 0 0
0 0 0 0 0 0 0 0 0 0 0 0 0 0 0 0 0 0 0 0 0 0 0 0 0 0 0 0 0 0 0 0 0 0 0 0 0 0 0 0 0 0 0
0 0 0 0 0 0 0 0 0 0 0 0 0 0 0 0 0 0 0 0 0 0 0 0 0 0 0 0 0 0 0 0 0 0 0 0 0 0 0 0 0 0 0
Wind_Speed
4 4 4 4 4 3 3 3 2 2 2 2 2 2 2 2 2 3 3 4 4 4 4 3 4 3 3 3 3 2 3 3 3 3 3 3 2 2 1 1 2 2 3
4 4 4 3 3 3 3 2 2 1 1 1 0 0 0 0 1 2 3 3 4 4 4 4 3 3 3 4 4 3 2 2 2 2 2 3 4 3 3 2 2 3 3
7 6 5 4 4 4 3 3 2 1 1 1 1 1 2 2 2 2 2 3 3 3 3 3 3 3 3 3 3 3 2 2 2 1 1 1 2 3 3 2 2 3 3
6 6 6 6 5 5 4 3 2 1 1 1 1 1 1 0 1 1 1 2 3 3 3 3 3 3 2 3 3 3 2 2 2 2 1 1 1 2 3 3 2 3 4
6 7 7 7 6 5 4 3 2 2 1 1 2 1 1 1 1 1 1 2 2 3 3 2 2 2 2 2 3 3 3 2 1 1 2 2 2 1 2 4 3 3 2
5 5 5 4 4 3 3 3 3 3 2 2 2 2 2 2 1 1 1 1 1 2 2 2 2 2 2 2 2 2 2 2 2 1 1 1 1 2 2 3 4 4 3
5 5 5 5 5 5 4 4 4 4 3 3 3 3 3 3 3 3 2 1 1 1 2 2 2 2 2 2 2 2 2 2 2 2 1 1 1 1 2 3 4 4 3
4 5 6 6 6 6 5 5 5 5 4 4 4 3 3 2 2 3 2 2 2 2 2 2 2 2 2 2 1 1 1 1 2 2 2 1 2 1 1 2 3 4 3
4 5 5 5 5 6 6 6 6 5 4 4 4 4 4 3 3 3 2 2 2 2 2 1 1 2 2 1 1 1 1 1 1 2 2 1 1 1 1 1 1 2 4
4 4 5 5 5 5 5 4 5 6 5 5 4 4 4 4 4 3 3 3 3 2 2 2 1 1 1 1 1 1 1 1 2 1 2 2 2 1 1 1 1 2 3
5 5 5 5 4 4 4 5 5 5 5 5 5 4 4 4 3 3 4 3 3 3 2 2 2 1 1 1 0 1 1 1 2 2 1 2 2 1 1 1 1 2 2
4 4 4 4 4 4 4 5 5 6 6 5 5 5 4 4 4 4 4 4 3 3 3 2 2 2 2 1 1 1 1 1 2 2 2 2 1 2 1 1 2 2 2
4 3 3 4 4 5 5 5 5 6 5 5 5 5 5 5 5 5 4 4 3 3 3 2 3 2 2 2 2 2 2 2 2 2 2 2 1 2 2 2 2 2 2
3 3 3 4 5 5 5 5 6 5 5 5 5 6 6 6 6 5 4 4 4 4 3 3 3 3 3 3 2 2 2 2 2 2 2 2 2 2 2 2 2 2 2
3 3 4 4 4 4 4 5 5 5 5 5 6 7 6 5 5 5 5 4 4 5 4 4 3 3 3 3 3 3 2 2 2 2 2 2 2 2 2 2 1 1 2
4 4 4 4 4 5 5 5 5 5 4 5 7 6 5 5 5 5 5 4 4 4 4 4 4 4 3 5 6 4 3 2 2 2 2 2 2 3 4 4 3 3 2
4 4 4 5 5 6 5 5 6 4 4 5 6 5 5 5 5 5 5 5 5 4 4 4 4 4 5 7 7 6 3 3 3 3 2 2 2 2 1 2 4 4 5
4 5 5 5 5 5 4 4 4 3 4 5 5 5 5 5 5 4 5 5 4 4 4 4 5 4 6 8 8 7 3 2 3 3 3 3 2 2 2 1 1 2 2
4 5 5 5 4 5 4 3 3 3 4 5 5 5 5 5 5 5 6 5 4 4 4 4 5 5 6 8 8 6 2 2 2 3 3 3 3 4 4 1 1 2 2
4 4 4 4 4 5 3 3 4 4 5 6 5 5 5 5 6 6 5 4 4 5 4 4 4 5 5 8 9 7 3 3 2 2 2 4 4 5 4 1 1 2 2
5 4 4 4 5 4 3 4 4 6 6 5 4 4 4 5 5 5 4 3 4 3 4 4 4 4 6 7 9 9 4 4 3 3 2 3 5 5 5 3 2 4 2
5 5 4 5 5 4 3 4 6 6 4 4 4 4 4 4 3 4 3 3 4 4 4 3 3 3 4 6 8 10 8 7 4 4 3 3 6 6 5 3 3 4 2
5 5 5 6 5 4 3 5 6 4 4 3 4 4 3 3 3 4 4 3 3 4 4 3 4 3 3 4 9 10 10 9 5 4 5 6 6 5 3 4 4 2 0
5 5 4 5 6 5 4 6 6 4 3 4 4 3 3 3 3 3 3 3 4 4 4 4 4 4 3 3 3 3 4 6 5 3 4 5 5 3 2 2 2 1 1
5 4 5 6 7 6 6 6 5 3 4 4 4 3 3 3 3 3 4 5 5 6 6 5 5 4 5 6 8 5 4 4 4 3 2 1 1 2 2 1 1 1 1
5 5 5 6 6 6 6 6 4 4 4 4 4 3 3 3 3 3 3 6 7 9 11 9 7 6 8 8 10 10 10 10 9 5 3 3 3 3 3 3 2 2 2
Wind_Direction
184 165 154 144 126 113 109 102 84 52 49 41 40 36 13 360 6 10 21 28 25 18 24 18 7 10 16 2 352 338 334 338 338 338 326 318 316 339 345 346 359 359 346
179 173 165 158 152 152 149 138 123 93 69 72 78 163 176 353 352 2 8 15 24 16 26 26 10 8 12 11 7 2 350 340 358 354 331 330 332 347 344 346 360 346 347
188 186 181 182 176 179 177 169 166 142 113 73 60 37 36 22 11 0 354 352 11 21 24 24 19 8 15 7 357 360 3 330 327 349 335 325 300 315 314 342 356 355 350
188 185 184 188 194 199 183 173 173 171 178 129 117 128 130 191 277 311 325 339 2 11 17 14 13 12 12 6 351 6 349 336 328 325 332 291 279 287 308 316 342 349 350
188 190 194 193 195 189 183 185 180 189 200 181 165 149 167 208 257 314 327 333 348 357 3 5 8 8 1 356 352 351 353 345 333 328 319 309 301 274 274 295 316 329 331
193 197 195 183 183 183 187 190 192 208 209 203 195 189 202 216 232 271 285 295 319 329 339 352 355 353 348 342 339 342 348 345 344 337 329 312 301 306 286 284 302 307 307
182 187 187 190 192 194 201 202 201 217 216 210 216 213 219 219 223 238 242 256 285 296 305 322 326 328 327 332 343 351 349 347 340 333 323 323 306 303 288 286 294 294 293
189 195 198 199 199 202 203 203 208 220 217 214 223 224 224 221 229 231 226 231 239 252 273 287 303 317 322 327 343 351 332 345 342 340 333 318 323 326 312 292 297 299 293
204 208 208 208 207 208 209 206 209 219 221 221 224 228 230 225 229 233 229 233 239 247 252 266 287 304 313 319 340 358 332 338 329 322 326 317 317 324 319 316 293 278 288
226 225 216 217 218 216 215 212 212 217 221 220 223 227 227 227 227 224 231 236 242 241 240 254 262 276 295 332 17 347 336 344 321 312 329 323 320 324 336 328 318 285 266
232 231 227 225 223 219 214 217 221 224 226 224 225 229 232 231 227 228 233 234 235 229 231 235 242 255 265 272 286 299 322 319 317 318 318 317 321 314 326 324 313 306 288
238 232 228 229 227 227 223 222 224 225 227 223 222 227 232 231 231 235 234 227 227 226 224 221 224 238 245 244 231 250 267 262 279 292 303 305 313 310 310 307 302 296 286
249 244 241 240 240 238 233 231 229 230 228 218 221 228 230 228 231 234 232 225 222 222 220 214 220 230 231 231 235 231 246 252 258 262 267 277 286 290 294 296 293 295 306
254 248 249 252 253 249 242 240 241 235 229 219 222 230 231 227 228 228 225 221 216 217 220 221 223 226 227 225 225 222 237 254 266 266 265 265 256 256 267 279 282 291 301
276 260 256 258 261 261 257 249 247 242 229 222 227 235 236 227 223 224 223 220 217 218 215 217 226 228 225 223 213 213 220 227 255 274 280 280 280 277 281 290 289 295 293
275 276 274 272 268 261 257 254 251 246 230 227 234 237 232 224 223 223 220 219 221 220 213 216 221 227 233 235 228 211 205 212 226 252 274 286 298 307 323 333 342 337 309
276 281 280 269 264 259 250 247 247 245 235 236 240 237 228 227 228 223 216 218 219 215 217 219 218 228 237 238 238 229 200 204 220 231 246 269 285 305 303 341 350 350 342
282 286 281 276 272 263 257 256 252 242 240 243 245 239 228 230 230 223 225 224 215 212 216 220 219 226 237 236 236 231 208 207 222 230 229 233 250 262 262 257 315 322 328
267 266 269 272 276 275 268 265 261 249 245 248 247 238 226 227 226 226 230 226 215 217 215 214 213 220 237 234 230 222 189 207 230 241 239 228 231 256 271 239 268 299 306
273 275 283 286 284 282 273 262 261 256 251 250 249 243 228 225 228 229 229 223 214 219 215 221 216 216 228 232 230 220 191 209 228 239 246 243 234 247 265 230 230 269 281
282 282 284 281 275 279 271 261 262 257 256 257 254 248 235 230 231 230 224 220 216 215 216 223 226 220 224 233 233 227 200 204 212 222 228 240 250 254 263 260 237 257 271
286 285 281 280 279 274 261 264 264 263 265 258 252 248 243 236 227 220 224 215 206 214 223 226 235 228 228 227 235 234 227 212 205 218 217 228 245 254 261 266 270 284 304
278 278 273 281 284 273 252 261 268 268 265 257 253 252 247 235 224 214 217 216 209 215 223 222 233 235 222 229 232 234 235 229 212 210 221 231 241 249 259 270 280 289 280
274 273 274 278 283 277 263 255 265 262 253 253 256 252 243 242 230 220 213 212 214 218 222 223 230 231 221 219 219 222 230 231 227 215 228 241 248 238 239 261 280 260 230
272 266 264 268 273 276 271 266 260 247 247 250 249 247 237 232 233 229 223 220 222 215 219 223 218 216 228 226 216 205 204 196 201 182 178 193 204 214 219 229 234 236 261
273 274 269 267 272 273 274 271 258 236 236 251 249 241 236 232 229 236 257 240 234 240 237 231 224 229 232 233 227 223 222 217 213 200 194 209 214 222 225 227 229 228 239